Weather History for New Haven, CT

Change the Weather History Date:

Monday, February 11, 2013

  Actual Average Record
Temperature  
Mean Temperature 30 °F -  
Max Temperature 42 °F 37 °F 27 °F (2014)
Min Temperature 19 °F 24 °F 6 °F (2014)
Degree Days  
Heating Degree Days 34    
Moisture  
Dew Point 34 °F    
Average Humidity 91    
Maximum Humidity 100    
Minimum Humidity 81    
Precipitation  
Precipitation 0.47 in - - ()
Sea Level Pressure  
Sea Level Pressure 29.86 in    
Wind  
Wind Speed 2 mph (ESE)    
Max Wind Speed 10 mph    
Max Gust Speed -    
Visibility 2 miles    
Events Fog , Rain    
Averages and records for this station are not official NWS values.
T = Trace of Precipitation, MM = Missing Value Source: NWS Daily Summary

Daily Weather History Graph

Daily Weather History Graph

Search for Another Location

Airport:

Trip Planner

Search our weather history database for the weather conditions in past years. The results will help you decide how hot, cold, wet, or windy it might be!

Date:

Astronomy

Feb. 11, 2013 Rise Set
Actual Time 6:51 AM EST 5:20 PM EST
Civil Twilight 6:22 AM EST 5:49 PM EST
Nautical Twilight 5:50 AM EST 6:21 PM EST
Astronomical Twilight 5:18 AM EST 6:54 PM EST
Moon 7:12 AM EST 7:16 PM EST
Length of Visible Light 11h 26m
Length of Day
10h 29m
Waxing Crescent, 3% of the Moon is Illuminated
Feb 11
Waxing Crescent
Feb 17
First Quarter
Feb 25
Full
Mar 4
Last Quarter
Mar 11
New

Hourly Weather History & Observations

Time (EST) Temp. Windchill Dew Point Humidity Pressure Visibility Wind Dir Wind Speed Gust Speed Precip Events Conditions
12:53 AM 19.9 °F 14.9 °F 15.1 °F 81% 30.33 in 8.0 mi North 3.5 mph - N/A   Clear
1:53 AM 21.9 °F - 17.1 °F 82% 30.31 in 8.0 mi Calm Calm - N/A   Clear
2:53 AM 23.0 °F - 19.0 °F 85% 30.28 in 8.0 mi Calm Calm - N/A   Partly Cloudy
3:53 AM 25.0 °F - 19.9 °F 81% 30.23 in 8.0 mi Calm Calm - N/A   Scattered Clouds
4:53 AM 28.0 °F - 23.0 °F 81% 30.24 in 10.0 mi Calm Calm - N/A   Overcast
5:53 AM 28.9 °F - 25.0 °F 85% 30.19 in 8.0 mi Calm Calm - N/A   Overcast
6:53 AM 35.1 °F 30.1 °F 30.0 °F 82% 30.17 in 8.0 mi East 5.8 mph - 0.00 in Rain Light Rain
7:53 AM 36.0 °F 29.0 °F 32.0 °F 86% 30.12 in 7.0 mi ESE 9.2 mph - 0.01 in Rain Light Rain
8:41 AM 37.4 °F 30.8 °F 33.8 °F 87% 30.08 in 4.0 mi ESE 9.2 mph - 0.02 in Rain Light Rain
8:53 AM 37.9 °F 32.1 °F 34.0 °F 86% 30.07 in 6.0 mi ESE 8.1 mph - 0.03 in Rain Light Rain
9:19 AM 39.2 °F 35.0 °F 35.6 °F 87% 30.05 in 2.5 mi ESE 5.8 mph - 0.02 in Rain Rain
9:30 AM 39.2 °F 35.0 °F 35.6 °F 87% 30.04 in 2.5 mi East 5.8 mph - 0.05 in Rain Rain
9:46 AM 39.2 °F 33.6 °F 37.4 °F 93% 30.02 in 2.0 mi ESE 8.1 mph - 0.08 in Rain Rain
9:53 AM 39.0 °F 32.3 °F 37.0 °F 93% 30.01 in 2.0 mi East 10.4 mph - 0.10 in Rain Rain
10:21 AM 39.2 °F 33.0 °F 37.4 °F 93% 29.98 in 1.5 mi ESE 9.2 mph - 0.06 in Rain Rain
10:53 AM 39.9 °F 35.8 °F 37.9 °F 93% 29.96 in 1.5 mi ESE 5.8 mph - 0.14 in Rain Rain
11:11 AM 41.0 °F - 41.0 °F 100% 29.96 in 0.8 mi Calm Calm - 0.08 in Rain Heavy Rain
11:53 AM 39.9 °F - 37.9 °F 93% 29.93 in 0.8 mi Calm Calm - 0.16 in Rain Light Rain
12:34 PM 42.8 °F - 39.2 °F 87% 29.89 in 0.8 mi Calm Calm - 0.01 in   Overcast
12:44 PM 42.8 °F - 41.0 °F 93% 29.88 in 0.2 mi Calm Calm - 0.02 in Fog , Rain Light Rain
12:53 PM 42.1 °F 40.2 °F 41.0 °F 96% 29.86 in 0.2 mi SSE 3.5 mph - 0.02 in Fog , Rain Rain
1:00 PM 42.8 °F 41.1 °F 41.0 °F 93% 29.86 in 0.2 mi SSE 3.5 mph - 0.01 in Fog , Rain Light Rain
1:53 PM 42.1 °F - 41.0 °F 96% 29.81 in 0.2 mi Calm Calm - 0.01 in Fog Fog
2:53 PM 42.1 °F - 39.9 °F 92% 29.79 in 0.2 mi Calm Calm - N/A Fog Fog
3:53 PM 42.1 °F - 39.9 °F 92% 29.75 in 0.2 mi Calm Calm - N/A Fog Fog
4:53 PM 41.0 °F - 37.9 °F 89% 29.73 in 0.2 mi Calm Calm - N/A Fog Fog
5:45 PM 37.4 °F - 35.6 °F 93% 29.71 in 0.1 mi Calm Calm - N/A Fog Fog
5:53 PM 37.9 °F - 36.0 °F 93% 29.71 in 0.2 mi Calm Calm - N/A Fog Fog
6:05 PM 39.2 °F - 35.6 °F 87% 29.72 in 0.5 mi Calm Calm - N/A Fog Fog
6:17 PM 37.4 °F - 35.6 °F 93% 29.71 in 0.2 mi Calm Calm - N/A Fog Fog
6:26 PM 37.4 °F - 35.6 °F 93% 29.70 in 0.2 mi Calm Calm - N/A Fog Fog
6:48 PM 37.4 °F - 35.6 °F 93% 29.69 in 0.5 mi Calm Calm - N/A Fog Fog
6:53 PM 37.0 °F - 35.1 °F 93% 29.70 in 0.5 mi Calm Calm - N/A Fog Fog
7:35 PM 37.4 °F - 35.6 °F 93% 29.67 in 0.2 mi Calm Calm - N/A Fog Fog
7:38 PM 37.4 °F - 35.6 °F 93% 29.67 in 0.5 mi Calm Calm - N/A Fog Fog
7:45 PM 37.4 °F - 35.6 °F 93% 29.67 in 0.2 mi Calm Calm - N/A Fog Fog
7:53 PM 37.0 °F - 35.1 °F 93% 29.68 in 0.2 mi Calm Calm - N/A Fog Fog
8:41 PM 37.4 °F - 35.6 °F 93% 29.67 in 0.5 mi Calm Calm - N/A Fog Fog
8:50 PM 37.4 °F - 35.6 °F 93% 29.67 in 0.5 mi Calm Calm - N/A Fog Fog
8:53 PM 37.9 °F - 36.0 °F 93% 29.67 in 0.5 mi Calm Calm - N/A Fog Fog
9:03 PM 37.4 °F - 35.6 °F 93% 29.66 in 0.8 mi Calm Calm - N/A   Mist
9:53 PM 37.0 °F - 35.1 °F 93% 29.68 in 0.8 mi Calm Calm - N/A   Overcast
10:09 PM 37.4 °F 34.9 °F 35.6 °F 93% 29.66 in 0.5 mi South 3.5 mph - N/A Fog Fog
10:33 PM 35.6 °F 32.8 °F 35.6 °F 100% 29.67 in 0.2 mi SSW 3.5 mph - N/A Fog Fog
10:39 PM 35.6 °F - 33.8 °F 93% 29.67 in 0.2 mi Calm Calm - N/A Fog Fog
10:53 PM 36.0 °F 33.3 °F 34.0 °F 93% 29.66 in 0.2 mi South 3.5 mph - N/A Fog Fog
11:40 PM 35.6 °F - 33.8 °F 93% 29.68 in 0.2 mi Calm Calm - N/A Fog Fog
11:45 PM 35.6 °F - 33.8 °F 93% 29.68 in 0.2 mi Calm Calm - N/A Fog Fog
11:53 PM 36.0 °F - 35.1 °F 97% 29.69 in 0.2 mi Calm Calm - N/A Fog Fog